Temp
-10 -11 -11 -11 -11 -11 -11 -11 -11 -11 -11 -11 -11 -12 -12 -11 -11 -11 -11 -11 -11 -11 -11 -11 -12 -11 -11 -11 -11 -11 -11 -11 -11 -12 -13 -13 -13 -13 -13 -14 -14 -13 -13 -13 -13 -14 -14
-10 -10 -10 -10 -10 -10 -10 -10 -10 -10 -10 -10 -10 -11 -11 -11 -10 -10 -10 -11 -11 -11 -11 -11 -11 -11 -11 -11 -11 -11 -11 -11 -12 -13 -13 -13 -13 -13 -14 -14 -14 -14 -13 -13 -14 -14 -16
-10 -11 -11 -10 -10 -10 -10 -10 -10 -10 -10 -10 -10 -10 -10 -10 -10 -10 -10 -10 -10 -10 -10 -10 -10 -10 -10 -10 -10 -10 -11 -11 -12 -13 -13 -13 -13 -14 -14 -14 -14 -14 -15 -14 -14 -17 -18
-10 -10 -11 -11 -10 -11 -11 -11 -10 -10 -10 -10 -9 -9 -10 -10 -10 -10 -9 -9 -9 -9 -9 -10 -10 -10 -10 -10 -10 -10 -11 -11 -12 -13 -13 -13 -13 -13 -14 -14 -14 -14 -14 -15 -15 -17 -18
-10 -10 -10 -10 -11 -11 -11 -11 -11 -11 -10 -10 -10 -9 -10 -9 -10 -10 -9 -9 -9 -9 -9 -9 -9 -10 -10 -10 -10 -11 -11 -11 -11 -12 -12 -13 -13 -13 -14 -14 -14 -15 -14 -15 -17 -18 -18
-10 -10 -10 -10 -10 -10 -11 -11 -11 -11 -10 -10 -10 -10 -10 -9 -9 -9 -9 -9 -9 -9 -9 -9 -9 -10 -10 -10 -10 -10 -11 -11 -11 -12 -12 -12 -12 -13 -13 -14 -14 -14 -14 -15 -17 -18 -18
-10 -10 -10 -10 -10 -10 -10 -11 -11 -11 -11 -10 -10 -10 -10 -9 -9 -9 -9 -10 -9 -9 -9 -9 -9 -9 -10 -10 -10 -10 -11 -11 -11 -12 -12 -12 -12 -12 -13 -13 -14 -14 -14 -15 -17 -18 -18
-10 -10 -10 -10 -10 -10 -10 -10 -11 -11 -10 -10 -10 -10 -10 -10 -9 -9 -9 -9 -9 -9 -9 -9 -9 -10 -10 -10 -10 -11 -10 -11 -11 -12 -12 -12 -12 -12 -13 -13 -14 -14 -15 -15 -17 -18 -18
-10 -10 -10 -10 -10 -10 -10 -10 -11 -11 -10 -10 -11 -10 -10 -10 -10 -10 -9 -9 -9 -9 -9 -9 -10 -10 -10 -10 -11 -11 -11 -11 -11 -12 -12 -12 -12 -12 -13 -13 -14 -14 -15 -15 -17 -18 -18
-9 -10 -10 -10 -10 -10 -10 -10 -10 -11 -11 -10 -11 -11 -11 -10 -10 -10 -10 -10 -10 -10 -10 -10 -10 -10 -10 -11 -11 -11 -11 -12 -11 -12 -12 -12 -12 -12 -13 -13 -13 -14 -14 -15 -16 -17 -17
-9 -9 -10 -10 -10 -10 -10 -10 -10 -10 -10 -10 -10 -10 -10 -10 -10 -10 -10 -11 -11 -11 -10 -10 -10 -10 -11 -11 -11 -11 -12 -12 -12 -12 -12 -12 -12 -13 -12 -13 -13 -14 -14 -14 -16 -17 -17
-10 -10 -10 -10 -10 -10 -11 -11 -10 -10 -10 -10 -10 -10 -10 -10 -10 -10 -10 -11 -11 -11 -11 -11 -11 -11 -11 -11 -11 -11 -12 -12 -12 -12 -12 -12 -12 -13 -13 -13 -13 -13 -14 -14 -15 -15 -15
-10 -10 -10 -10 -10 -10 -10 -11 -11 -10 -10 -10 -10 -10 -10 -10 -10 -10 -10 -10 -11 -11 -11 -11 -11 -11 -11 -11 -11 -11 -12 -12 -12 -13 -12 -13 -13 -13 -13 -13 -13 -13 -13 -14 -14 -14 -15
-10 -10 -10 -10 -10 -10 -10 -11 -11 -11 -11 -10 -10 -10 -10 -10 -10 -10 -10 -10 -11 -11 -11 -11 -12 -12 -12 -11 -12 -12 -12 -12 -13 -13 -13 -13 -13 -13 -13 -13 -13 -13 -13 -14 -14 -14 -14
-10 -10 -10 -10 -10 -10 -11 -11 -10 -11 -10 -10 -10 -10 -10 -10 -10 -10 -10 -10 -10 -10 -11 -11 -12 -12 -12 -12 -12 -12 -12 -12 -12 -13 -13 -13 -13 -13 -13 -13 -14 -14 -14 -14 -14 -15 -14
-10 -10 -10 -10 -10 -10 -11 -11 -10 -10 -10 -10 -10 -11 -10 -11 -11 -10 -10 -11 -11 -10 -11 -11 -11 -12 -12 -13 -13 -12 -12 -12 -13 -13 -13 -13 -13 -13 -14 -14 -14 -14 -14 -14 -15 -15 -15
-10 -10 -10 -11 -11 -11 -11 -11 -10 -10 -10 -10 -11 -11 -11 -10 -11 -11 -10 -11 -11 -11 -11 -11 -11 -11 -12 -12 -13 -13 -13 -13 -13 -13 -13 -13 -13 -13 -14 -14 -14 -14 -14 -15 -15 -15 -15
-11 -11 -11 -11 -11 -11 -10 -10 -10 -10 -10 -10 -10 -11 -11 -11 -11 -11 -11 -11 -12 -12 -12 -11 -11 -12 -11 -11 -12 -13 -14 -13 -13 -13 -13 -14 -15 -14 -14 -14 -14 -15 -15 -15 -15 -15 -16
-11 -11 -11 -11 -11 -11 -11 -11 -10 -10 -10 -10 -10 -10 -11 -11 -11 -11 -11 -11 -12 -12 -12 -12 -12 -12 -12 -12 -12 -13 -14 -14 -14 -14 -14 -15 -14 -15 -14 -15 -15 -15 -15 -15 -15 -15 -16
-11 -11 -11 -11 -11 -11 -11 -11 -11 -11 -10 -10 -10 -10 -11 -11 -11 -11 -11 -12 -12 -12 -12 -12 -12 -12 -12 -12 -13 -12 -13 -14 -15 -15 -15 -14 -15 -15 -15 -15 -15 -15 -15 -15 -16 -16 -16
-11 -11 -11 -11 -11 -11 -11 -11 -11 -11 -11 -10 -11 -10 -11 -11 -11 -12 -12 -12 -12 -12 -12 -12 -12 -12 -12 -12 -12 -14 -14 -14 -15 -15 -15 -15 -15 -16 -16 -16 -16 -15 -16 -16 -16 -17 -16
-12 -12 -12 -11 -12 -12 -11 -11 -12 -11 -11 -11 -11 -11 -10 -10 -11 -11 -11 -12 -12 -13 -12 -12 -13 -13 -13 -13 -13 -13 -14 -15 -15 -15 -15 -16 -15 -16 -16 -16 -16 -16 -16 -17 -17 -17 -16
-12 -12 -12 -12 -12 -12 -12 -12 -12 -12 -11 -11 -11 -11 -11 -10 -11 -11 -11 -11 -12 -12 -12 -13 -13 -13 -14 -14 -14 -14 -15 -15 -15 -15 -15 -16 -16 -16 -15 -16 -16 -15 -17 -17 -17 -17 -17
-12 -12 -12 -12 -13 -13 -12 -12 -12 -12 -12 -12 -12 -12 -11 -11 -11 -12 -11 -12 -12 -12 -13 -13 -13 -14 -14 -14 -15 -15 -16 -16 -16 -16 -16 -16 -16 -16 -16 -16 -15 -16 -16 -17 -17 -17 -17
-12 -12 -13 -14 -13 -13 -12 -12 -12 -12 -12 -12 -12 -12 -12 -12 -12 -12 -12 -12 -13 -12 -13 -13 -14 -14 -14 -15 -15 -15 -16 -16 -16 -17 -17 -17 -17 -16 -16 -16 -16 -16 -17 -17 -17 -17 -17
-13 -13 -13 -13 -13 -13 -13 -13 -13 -13 -13 -13 -13 -13 -13 -12 -12 -13 -13 -13 -13 -14 -14 -14 -14 -14 -15 -15 -16 -16 -16 -16 -16 -16 -17 -17 -17 -17 -17 -17 -16 -16 -17 -17 -17 -17 -18
-14 -13 -13 -13 -13 -13 -13 -13 -13 -13 -14 -14 -14 -14 -14 -13 -13 -14 -14 -14 -14 -14 -14 -14 -15 -15 -16 -16 -16 -16 -16 -17 -17 -17 -17 -17 -17 -17 -17 -17 -17 -17 -18 -18 -18 -17 -17
-14 -13 -13 -14 -13 -13 -14 -14 -14 -14 -14 -14 -14 -15 -14 -14 -13 -14 -14 -15 -15 -15 -15 -15 -15 -15 -16 -16 -16 -17 -17 -17 -17 -17 -17 -17 -17 -18 -18 -18 -17 -18 -18 -18 -18 -18 -18
-14 -14 -14 -14 -14 -14 -14 -14 -14 -14 -14 -14 -14 -15 -15 -14 -14 -14 -14 -15 -15 -15 -16 -15 -16 -16 -16 -16 -17 -17 -17 -17 -17 -17 -18 -17 -18 -18 -18 -18 -18 -18 -18 -18 -18 -18 -19
Height
5866 5865 5864 5863 5862 5861 5859 5857 5855 5852 5850 5847 5844 5841 5837 5834 5832 5830 5827 5825 5823 5821 5818 5815 5812 5808 5805 5803 5800 5796 5792 5789 5785 5780 5776 5771 5765 5760 5754 5750 5747 5744 5741 5739 5734 5728 5722
5868 5867 5866 5865 5864 5862 5860 5858 5856 5854 5852 5849 5845 5842 5839 5836 5833 5831 5828 5826 5824 5821 5818 5815 5812 5809 5806 5803 5800 5796 5792 5788 5784 5778 5773 5767 5762 5757 5752 5747 5744 5741 5737 5732 5729 5720 5710
5869 5868 5867 5866 5864 5863 5861 5859 5857 5854 5852 5850 5847 5844 5841 5838 5834 5831 5829 5826 5823 5821 5818 5815 5812 5809 5806 5804 5799 5795 5791 5787 5782 5776 5770 5765 5759 5754 5750 5745 5741 5737 5735 5727 5719 5709 5704
5870 5869 5868 5867 5865 5864 5862 5860 5858 5855 5853 5850 5848 5845 5842 5839 5836 5832 5829 5826 5823 5821 5818 5815 5812 5809 5806 5802 5798 5795 5791 5786 5781 5775 5768 5763 5757 5753 5749 5743 5741 5737 5730 5721 5715 5710 5703
5870 5869 5868 5867 5865 5864 5861 5859 5857 5855 5853 5850 5848 5845 5843 5840 5837 5833 5830 5826 5824 5821 5818 5815 5812 5808 5805 5801 5798 5794 5790 5785 5780 5775 5768 5762 5757 5751 5748 5742 5737 5733 5728 5720 5713 5705 5700
5869 5868 5868 5866 5865 5863 5861 5859 5857 5855 5852 5850 5847 5845 5843 5839 5837 5834 5830 5827 5824 5821 5818 5815 5811 5809 5803 5800 5796 5792 5787 5783 5779 5774 5769 5763 5757 5751 5746 5742 5738 5734 5727 5718 5710 5704 5699
5868 5868 5867 5866 5864 5862 5860 5858 5855 5853 5851 5848 5846 5843 5840 5838 5835 5833 5831 5828 5825 5821 5817 5814 5810 5807 5803 5799 5795 5790 5785 5782 5777 5773 5768 5763 5758 5751 5746 5740 5736 5732 5725 5717 5710 5705 5701
5867 5867 5866 5865 5864 5862 5859 5857 5855 5852 5849 5846 5844 5842 5839 5836 5833 5831 5828 5826 5823 5821 5817 5812 5809 5806 5802 5798 5794 5789 5786 5781 5777 5771 5767 5763 5757 5752 5746 5741 5737 5733 5727 5718 5713 5705 5700
5866 5866 5865 5864 5863 5861 5858 5855 5853 5850 5848 5845 5843 5840 5838 5835 5832 5829 5826 5824 5821 5818 5816 5812 5808 5803 5801 5797 5792 5788 5785 5780 5774 5770 5766 5762 5757 5752 5746 5742 5737 5733 5728 5719 5713 5707 5705
5864 5865 5864 5863 5862 5860 5857 5854 5851 5849 5846 5844 5841 5838 5835 5834 5832 5828 5825 5821 5818 5814 5813 5810 5806 5803 5799 5794 5791 5786 5782 5780 5775 5770 5765 5761 5756 5751 5747 5742 5738 5734 5729 5721 5715 5710 5706
5863 5863 5863 5862 5861 5859 5856 5853 5850 5848 5845 5842 5840 5836 5833 5830 5828 5825 5822 5818 5814 5811 5809 5807 5803 5799 5795 5793 5789 5785 5780 5776 5773 5769 5765 5761 5755 5752 5747 5743 5739 5735 5731 5723 5717 5711 5708
5860 5860 5860 5859 5858 5857 5854 5851 5848 5846 5843 5840 5837 5834 5832 5829 5825 5822 5819 5816 5812 5810 5805 5802 5800 5797 5794 5791 5787 5783 5778 5774 5771 5768 5763 5759 5755 5751 5748 5743 5739 5735 5731 5727 5720 5715 5711
5857 5857 5856 5856 5855 5854 5852 5849 5846 5843 5841 5838 5836 5832 5830 5827 5824 5821 5817 5815 5812 5807 5805 5801 5797 5794 5791 5787 5783 5780 5777 5773 5769 5766 5762 5757 5754 5750 5747 5744 5739 5735 5732 5729 5725 5719 5714
5853 5853 5853 5852 5852 5851 5849 5847 5844 5841 5838 5836 5833 5830 5826 5824 5820 5818 5815 5812 5808 5804 5800 5795 5793 5789 5785 5783 5780 5777 5774 5771 5766 5762 5760 5757 5753 5750 5746 5743 5740 5736 5733 5729 5725 5721 5718
5849 5849 5848 5848 5847 5847 5845 5843 5840 5838 5836 5833 5831 5827 5823 5821 5818 5815 5813 5809 5804 5801 5797 5793 5790 5786 5783 5780 5775 5772 5771 5767 5763 5759 5758 5754 5751 5747 5744 5741 5739 5735 5733 5730 5725 5723 5720
5844 5844 5844 5844 5843 5842 5840 5838 5836 5834 5832 5830 5828 5826 5821 5817 5814 5811 5809 5806 5802 5798 5794 5790 5784 5781 5777 5773 5769 5766 5765 5762 5759 5756 5753 5751 5749 5745 5743 5740 5736 5733 5731 5729 5726 5722 5720
5838 5839 5839 5838 5838 5837 5835 5833 5831 5829 5827 5826 5824 5821 5818 5814 5811 5807 5804 5801 5798 5794 5792 5789 5783 5779 5774 5769 5765 5762 5758 5756 5754 5752 5749 5746 5745 5743 5739 5736 5733 5731 5727 5725 5724 5721 5718
5831 5832 5832 5832 5831 5831 5829 5827 5826 5823 5821 5819 5819 5817 5813 5809 5807 5804 5801 5797 5794 5789 5786 5784 5779 5774 5770 5764 5760 5756 5752 5750 5747 5746 5744 5742 5739 5737 5734 5731 5728 5726 5723 5721 5719 5719 5714
5824 5824 5824 5824 5824 5823 5823 5821 5820 5818 5815 5812 5810 5811 5808 5803 5800 5798 5796 5792 5787 5783 5780 5776 5773 5768 5764 5759 5754 5750 5745 5743 5740 5739 5735 5734 5731 5730 5728 5725 5722 5720 5719 5716 5714 5712 5711
5814 5815 5816 5816 5816 5815 5815 5814 5812 5811 5808 5805 5802 5800 5800 5797 5795 5792 5788 5787 5783 5778 5775 5769 5767 5761 5757 5753 5747 5742 5738 5736 5732 5731 5728 5724 5724 5720 5721 5718 5717 5716 5714 5712 5709 5708 5706
5806 5807 5807 5807 5807 5806 5806 5805 5804 5802 5799 5797 5795 5792 5789 5786 5786 5784 5781 5778 5774 5769 5767 5763 5761 5754 5750 5746 5740 5736 5732 5727 5726 5723 5719 5715 5715 5711 5710 5709 5706 5705 5706 5704 5703 5702 5698
5797 5798 5798 5798 5797 5797 5796 5795 5794 5793 5791 5789 5787 5785 5782 5778 5777 5774 5772 5770 5765 5761 5757 5754 5751 5745 5742 5737 5732 5728 5725 5721 5718 5716 5711 5708 5706 5704 5703 5699 5697 5696 5697 5696 5695 5693 5690
5788 5789 5789 5789 5789 5788 5787 5786 5786 5784 5782 5780 5779 5776 5774 5772 5769 5767 5764 5760 5757 5753 5751 5746 5742 5738 5734 5729 5724 5720 5716 5712 5709 5707 5703 5700 5697 5694 5694 5691 5688 5689 5688 5686 5685 5684 5682
5778 5778 5779 5778 5779 5778 5778 5777 5777 5775 5774 5773 5771 5768 5767 5764 5760 5758 5753 5750 5747 5744 5740 5737 5733 5727 5725 5720 5716 5713 5709 5705 5702 5697 5694 5691 5688 5685 5683 5681 5679 5679 5678 5676 5675 5674 5672
5766 5767 5767 5768 5769 5769 5768 5768 5767 5766 5765 5764 5762 5760 5758 5755 5753 5750 5744 5741 5738 5734 5730 5726 5723 5720 5715 5712 5707 5704 5703 5698 5695 5691 5686 5683 5680 5676 5673 5671 5671 5670 5669 5668 5665 5665 5662
5755 5756 5758 5758 5758 5758 5758 5758 5757 5756 5755 5754 5753 5750 5748 5747 5746 5742 5737 5734 5728 5725 5723 5720 5714 5709 5705 5702 5698 5695 5691 5688 5684 5681 5679 5675 5671 5667 5664 5661 5660 5661 5660 5658 5655 5655 5651
5743 5744 5745 5747 5747 5748 5747 5746 5745 5745 5744 5744 5742 5739 5738 5737 5737 5733 5729 5725 5721 5717 5714 5710 5706 5701 5697 5693 5689 5687 5684 5680 5676 5673 5670 5666 5663 5658 5655 5652 5653 5652 5651 5648 5646 5645 5638
5731 5733 5734 5735 5736 5736 5736 5736 5735 5734 5733 5733 5731 5728 5726 5727 5726 5724 5720 5717 5713 5709 5704 5701 5697 5695 5688 5683 5680 5679 5674 5672 5668 5664 5661 5659 5654 5652 5648 5645 5644 5643 5640 5637 5633 5629 5625
5718 5720 5722 5723 5724 5724 5724 5724 5723 5722 5720 5720 5721 5715 5714 5715 5716 5714 5711 5708 5704 5700 5695 5692 5688 5683 5679 5674 5671 5666 5664 5662 5659 5657 5654 5651 5648 5644 5641 5637 5633 5630 5626 5623 5618 5614 5609
Wind_Speed
7 8 10 12 14 17 18 20 21 22 23 25 25 25 23 21 19 17 16 17 18 19 20 22 23 22 22 23 23 24 27 30 33 36 36 32 29 29 28 22 21 20 19 21 25 31 36
8 9 10 11 13 15 16 18 20 22 23 25 26 26 24 22 19 18 16 17 19 20 20 21 23 23 23 24 24 25 27 29 32 34 34 34 31 29 23 19 19 19 21 23 24 33 39
7 8 9 10 12 13 14 15 16 19 20 23 24 25 24 23 23 20 19 19 20 21 20 20 21 22 22 22 24 25 28 30 33 33 34 33 31 30 26 21 19 19 19 26 33 36 33
6 9 11 12 12 14 15 17 16 18 19 20 21 24 24 26 22 20 18 19 19 18 19 20 20 21 21 21 22 25 26 28 32 33 32 32 32 31 28 25 17 15 23 30 35 31 21
5 8 10 11 12 14 15 16 16 17 19 19 20 19 22 22 23 21 18 17 17 16 18 18 20 20 20 21 23 24 24 26 31 30 31 31 31 32 27 24 22 21 23 28 30 28 22
7 8 10 12 13 15 17 17 17 17 17 18 19 19 19 21 22 22 19 17 17 15 16 20 21 21 23 22 22 25 25 25 27 28 29 31 31 31 29 24 20 20 24 29 30 23 19
9 9 9 10 13 16 18 19 19 19 19 18 17 19 20 19 20 21 21 21 23 19 16 19 22 23 24 23 23 25 26 25 26 25 29 31 30 31 27 23 19 20 25 30 27 19 14
10 9 8 9 13 18 21 19 20 22 20 19 19 21 20 21 20 21 19 20 25 21 17 14 17 19 21 22 22 24 25 27 26 25 26 29 29 28 27 22 18 19 26 30 23 18 20
10 6 6 10 13 19 22 21 18 21 21 21 22 23 23 21 22 22 23 22 22 22 20 20 16 16 18 19 19 21 23 24 27 25 24 25 25 26 26 23 18 18 24 29 27 17 11
6 4 7 11 13 19 23 24 21 21 22 23 23 26 23 24 22 23 25 25 25 23 20 23 19 18 18 17 19 20 21 23 24 26 25 24 23 24 24 22 20 18 23 27 27 18 12
6 6 8 10 15 21 26 24 25 23 24 23 25 26 23 23 25 25 26 28 28 25 25 22 23 22 21 19 20 21 21 21 21 23 24 23 22 21 21 21 19 17 20 23 24 20 11
9 9 9 11 17 25 25 27 27 26 25 21 23 23 23 23 27 28 28 28 27 27 26 24 23 25 24 23 23 21 21 23 21 22 21 21 20 19 19 19 17 15 15 19 22 24 15
13 13 14 15 21 26 29 29 28 28 25 22 26 27 26 25 26 27 29 29 29 27 27 27 27 26 27 28 27 25 24 25 23 20 21 20 18 18 19 18 15 13 13 15 18 22 23
18 18 18 19 24 28 30 30 29 27 26 22 25 30 28 25 26 29 28 31 28 25 25 28 27 28 29 30 29 29 27 23 23 22 18 17 17 16 17 17 15 11 12 12 13 16 19
22 23 23 23 25 29 32 31 28 26 26 25 27 30 30 26 27 29 28 29 29 29 29 28 30 31 31 30 32 31 26 26 25 24 22 21 19 19 17 16 15 13 11 9 9 9 11
27 26 27 28 29 31 31 30 26 24 25 26 27 25 30 30 28 29 30 30 33 32 32 31 32 29 32 33 33 32 30 28 25 24 24 22 20 19 20 17 15 13 12 10 7 7 6
31 31 31 32 33 33 33 30 27 24 24 26 28 27 27 31 32 30 30 29 30 33 34 35 35 36 35 34 32 34 34 32 28 27 24 26 24 24 20 20 17 16 13 13 13 10 10
35 36 36 36 37 36 35 32 28 26 25 28 26 29 32 36 33 31 30 32 35 34 35 34 35 37 38 39 35 35 36 33 32 29 26 26 26 27 23 21 20 18 16 16 16 16 17
40 39 40 40 40 39 37 35 32 31 33 35 36 32 32 36 37 34 29 34 37 39 39 34 36 38 38 39 39 35 33 33 32 31 31 26 29 28 26 25 23 20 20 20 20 20 19
43 44 43 43 42 41 39 37 37 37 39 43 44 43 40 36 36 37 39 36 40 42 37 35 38 38 39 39 39 38 34 31 31 34 36 40 35 32 30 29 26 23 24 23 24 24 24
44 43 42 42 42 42 42 44 45 44 43 44 45 44 43 41 35 38 42 44 45 45 41 42 39 40 42 41 43 38 36 38 35 34 37 41 35 32 33 29 30 27 25 27 26 26 30
44 43 43 43 44 46 45 41 40 42 42 40 41 38 36 36 36 39 40 41 44 45 44 43 39 44 43 43 44 43 39 36 36 36 37 37 36 38 38 33 33 33 29 29 28 31 32
49 49 49 47 47 46 43 41 40 38 38 39 39 41 41 42 41 39 41 42 41 43 43 44 46 45 45 45 43 43 38 37 40 40 38 35 33 36 32 31 35 35 30 34 32 32 35
55 55 51 48 43 43 43 40 39 37 37 39 38 38 41 42 42 40 42 42 41 41 42 44 46 47 45 45 45 44 38 38 36 37 37 35 34 34 34 32 34 35 34 33 31 31 35
54 51 46 43 42 41 41 39 37 37 38 39 39 40 41 43 42 42 40 41 42 43 43 45 45 46 48 48 46 46 40 41 39 37 35 34 35 35 36 36 35 32 32 34 33 34 35
50 48 47 47 45 42 41 41 39 41 41 41 41 43 44 44 42 43 42 42 42 43 43 43 43 46 47 46 43 43 42 43 43 41 39 37 35 37 37 37 36 32 30 33 37 38 41
51 50 50 48 45 45 44 44 43 43 44 44 44 46 46 46 43 43 43 47 45 43 43 44 44 42 43 43 43 44 43 46 42 40 38 38 38 38 36 37 36 33 36 39 41 46 48
55 53 51 49 49 49 47 46 47 46 48 49 47 45 46 48 48 46 46 46 46 45 46 45 46 45 46 47 45 44 45 44 41 39 37 35 35 35 35 37 38 41 43 45 48 51 54
55 54 53 52 51 50 50 49 49 50 50 52 49 49 49 49 50 50 49 45 46 45 46 46 48 46 47 44 44 44 46 44 39 36 37 38 38 39 39 41 43 45 48 51 54 56 58
Wind_Direction
50 43 36 26 28 28 28 30 26 25 24 27 24 27 22 20 17 14 5 2 1 3 6 7 8 8 8 6 3 0 356 352 345 345 346 342 337 338 334 320 324 321 319 317 322 319 313
46 34 25 25 24 25 22 23 20 20 18 21 21 21 21 19 18 11 3 1 1 3 4 6 9 10 11 7 4 359 355 351 347 345 345 347 345 341 337 338 336 329 329 331 320 315 327
30 23 21 18 20 20 16 14 10 11 9 13 18 18 19 16 10 10 9 8 8 9 8 7 8 10 7 5 3 0 356 356 356 351 350 355 347 346 346 346 347 342 325 327 340 338 338
18 15 13 12 11 11 6 4 360 358 1 2 7 10 13 14 9 3 4 8 12 15 12 12 12 11 9 7 3 1 359 1 1 356 358 1 359 356 359 349 345 349 347 346 340 341 336
350 349 350 351 354 353 352 353 352 354 352 353 356 2 4 5 6 1 356 357 7 12 14 14 12 7 4 3 359 358 359 5 8 5 3 6 1 1 0 3 358 353 348 341 343 347 348
312 322 330 338 345 344 343 341 341 345 344 348 349 349 350 355 355 358 355 345 355 358 4 4 3 2 359 357 357 356 359 4 11 8 9 9 9 8 10 3 4 0 351 343 354 351 355
297 311 323 341 348 350 346 346 345 339 336 341 343 342 343 338 345 351 353 351 346 340 356 2 1 1 359 354 354 355 354 358 7 9 9 16 13 13 13 9 8 2 353 348 354 356 352
287 304 324 342 350 352 346 333 338 344 339 337 339 344 342 339 328 335 336 343 346 339 336 347 357 355 356 356 354 352 353 350 358 5 5 10 15 12 14 12 9 5 358 348 0 358 3
279 290 330 340 348 358 356 350 337 340 345 344 340 340 340 342 340 329 333 328 326 332 331 331 334 342 347 351 355 350 349 349 350 356 1 4 10 10 13 13 10 9 7 354 4 8 4
253 286 327 333 349 355 355 356 348 341 342 341 341 337 334 335 341 340 336 335 333 330 326 323 319 325 331 339 342 345 343 347 347 349 353 358 7 14 13 16 16 13 19 9 11 22 16
246 290 315 333 347 351 348 343 342 341 335 336 336 337 336 336 338 340 334 335 333 330 327 320 314 313 316 325 335 337 338 341 342 345 347 350 5 14 20 19 23 19 24 19 28 32 18
250 279 296 323 341 347 344 342 336 335 337 333 341 345 338 336 338 337 340 339 334 331 332 328 320 315 313 315 319 329 331 337 339 341 346 345 353 6 17 21 29 28 29 29 24 44 44
248 266 285 309 326 333 334 340 338 334 333 329 337 336 337 339 343 340 337 343 340 334 332 328 327 320 314 311 314 317 322 328 331 335 340 341 341 346 358 8 17 33 31 40 36 36 46
251 266 277 298 316 323 328 331 334 331 330 327 325 334 328 331 334 339 337 338 341 341 334 326 324 323 318 310 307 312 311 317 321 324 330 333 331 334 346 352 358 7 18 29 38 44 41
260 269 274 292 305 312 320 324 328 329 325 326 332 332 325 322 325 333 338 339 338 342 342 337 326 321 317 317 311 306 309 310 313 316 321 327 327 325 330 341 346 352 353 3 15 38 48
262 267 276 287 298 306 313 320 317 320 321 321 325 330 322 318 319 326 327 333 335 338 338 337 335 326 320 317 314 313 306 304 303 309 312 319 318 318 317 324 331 337 337 340 347 352 3
262 267 273 282 292 300 305 309 308 303 310 318 320 321 319 315 316 316 321 326 330 330 334 333 331 331 327 322 314 312 312 302 301 302 304 310 312 310 308 307 312 317 322 323 320 320 328
262 266 272 280 288 295 300 303 301 297 300 307 313 309 314 317 316 316 316 322 324 326 325 326 327 326 326 324 319 312 304 303 297 295 297 299 303 302 302 297 296 303 306 308 308 312 312
261 264 270 276 282 289 294 297 295 300 295 301 303 307 314 312 314 313 310 317 317 319 318 316 321 320 322 323 318 316 312 300 296 294 292 290 291 292 294 287 287 288 293 297 300 301 302
258 263 268 273 278 282 286 289 291 296 296 298 301 305 306 304 307 307 309 313 312 313 318 313 317 315 319 318 313 313 313 308 299 293 290 287 288 286 290 287 287 284 286 287 293 294 288
260 263 266 271 276 281 285 287 285 290 293 296 301 303 305 301 303 303 306 309 307 308 310 311 313 313 316 317 312 309 308 306 303 300 296 292 289 279 279 276 277 276 278 283 287 284 289
263 266 269 272 277 281 284 286 290 287 293 298 302 303 305 305 309 307 308 305 303 305 307 307 311 312 312 312 310 308 307 305 302 300 297 297 294 287 283 275 278 277 280 281 282 287 289
266 268 271 274 277 282 287 291 285 288 294 296 297 299 300 301 306 308 307 307 305 304 306 305 307 308 309 308 306 305 305 306 304 303 299 294 293 292 290 284 285 285 276 281 282 285 285
266 268 268 269 274 278 281 283 286 287 289 292 296 297 298 301 305 307 305 303 302 301 300 299 303 304 303 302 300 299 302 306 308 305 301 295 292 288 288 285 283 284 281 283 285 285 287
264 266 272 273 273 276 278 279 282 285 290 291 292 293 296 300 302 303 301 302 301 300 300 301 301 300 300 300 298 295 300 302 302 300 299 295 291 289 288 287 287 288 289 289 291 292 291
264 266 266 267 270 272 273 276 282 286 285 288 291 293 297 301 302 302 299 299 299 298 299 299 297 296 298 299 294 295 300 303 305 300 300 294 292 290 290 288 289 292 290 288 288 289 288
259 260 264 267 269 270 273 277 278 281 283 286 291 293 296 298 300 301 301 300 300 300 300 299 297 297 298 297 294 295 300 302 300 299 297 293 293 291 291 289 289 289 290 289 289 289 291
259 261 263 264 268 272 274 277 280 281 283 287 290 291 294 296 299 301 299 300 299 300 299 298 295 294 297 298 293 293 298 301 300 296 299 298 296 297 294 291 291 291 291 290 291 292 292
258 259 261 264 267 271 275 277 279 281 283 286 288 288 291 294 296 295 296 299 297 297 298 302 296 297 300 296 293 288 293 297 298 296 299 298 297 295 294 292 293 292 290 290 290 290 291